EN

Hourly Weather Lac-Brome

Today, 24 July, Saturday

Time Temperature Precipitation Wind Pressure Humidity
00:00 +13°C° 0 mm 1 mps 743 mmHg 90%
01:00 +13°C° 0 mm 1 mps 743 mmHg 91%
02:00 +13°C° 0 mm 1 mps 743 mmHg 91%
03:00 +13°C° 0 mm 1 mps 743 mmHg 91%
04:00 +12°C° 0 mm 1 mps 743 mmHg 92%
05:00 +14°C° 0 mm 1 mps 743 mmHg 86%
06:00 +16°C° 0 mm 1 mps 743 mmHg 81%
07:00 +19°C° 0 mm 1 mps 743 mmHg 75%
08:00 +21°C° 0 mm 1 mps 743 mmHg 67%
09:00 +23°C° 0 mm 1 mps 743 mmHg 59%
10:00 +25°C° 0 mm 1 mps 743 mmHg 51%
11:00 +26°C° 0 mm 1 mps 743 mmHg 47%
12:00 +26°C° 0 mm 2 mps 742 mmHg 44%
13:00 +27°C° 0 mm 2 mps 742 mmHg 41%
14:00 +27°C° 0 mm 2 mps 741 mmHg 41%
15:00 +27°C° 0 mm 2 mps 741 mmHg 41%
16:00 +27°C° 0 mm 2 mps 740 mmHg 41%
17:00 +25°C° 0 mm 2 mps 740 mmHg 51%
18:00 +23°C° 0 mm 2 mps 740 mmHg 61%
19:00 +21°C° 0 mm 1 mps 739 mmHg 71%
20:00 +19°C° 0 mm 2 mps 739 mmHg 69%
21:00 +19°C° 0 mm 2 mps 739 mmHg 67%
22:00 +18°C° 0 mm 2 mps 738 mmHg 65%
23:00 +18°C° 0 mm 2 mps 738 mmHg 64%

Tomorrow, 25 July, Sunday

Time Temperature Precipitation Wind Pressure Humidity
00:00 +19°C° 0 mm 3 mps 737 mmHg 64%
01:00 +19°C° 0 mm 3 mps 737 mmHg 63%
02:00 +18°C° 0.6 mm 3 mps 736 mmHg 72%
03:00 +17°C° 0.6 mm 3 mps 736 mmHg 82%
04:00 +17°C° 0.6 mm 4 mps 735 mmHg 91%
05:00 +17°C° 4.4 mm 3 mps 735 mmHg 93%
06:00 +17°C° 4.4 mm 3 mps 735 mmHg 96%
07:00 +17°C° 4.4 mm 3 mps 734 mmHg 98%
08:00 +17°C° 1 mm 3 mps 734 mmHg 98%
09:00 +18°C° 1 mm 3 mps 735 mmHg 97%
10:00 +18°C° 1 mm 4 mps 735 mmHg 97%
11:00 +19°C° 0.1 mm 3 mps 735 mmHg 96%
12:00 +20°C° 0.1 mm 3 mps 735 mmHg 95%
13:00 +20°C° 0.1 mm 3 mps 735 mmHg 93%
14:00 +21°C° 0.3 mm 3 mps 735 mmHg 91%
15:00 +22°C° 0.3 mm 3 mps 735 mmHg 88%
16:00 +24°C° 0.3 mm 2 mps 735 mmHg 85%
17:00 +23°C° 0.3 mm 2 mps 735 mmHg 88%
18:00 +21°C° 0.3 mm 2 mps 735 mmHg 91%
19:00 +21°C° 0.3 mm 2 mps 735 mmHg 93%
20:00 +20°C° 0.1 mm 2 mps 735 mmHg 94%
21:00 +19°C° 0.1 mm 2 mps 735 mmHg 95%
22:00 +18°C° 0.1 mm 2 mps 735 mmHg 96%
23:00 +18°C° 0.4 mm 2 mps 735 mmHg 96%

Day after tomorrow, 26 July, Monday

Time Temperature Precipitation Wind Pressure Humidity
00:00 +18°C° 0.4 mm 2 mps 735 mmHg 96%
01:00 +18°C° 0.4 mm 2 mps 735 mmHg 96%
02:00 +18°C° 0.1 mm 2 mps 735 mmHg 96%
03:00 +18°C° 0.1 mm 2 mps 735 mmHg 96%
04:00 +17°C° 0.1 mm 2 mps 736 mmHg 96%
05:00 +18°C° 0 mm 2 mps 736 mmHg 95%
06:00 +19°C° 0 mm 2 mps 736 mmHg 93%
07:00 +20°C° 0 mm 2 mps 737 mmHg 92%
08:00 +21°C° 0 mm 3 mps 737 mmHg 81%
09:00 +23°C° 0 mm 4 mps 737 mmHg 69%
10:00 +26°C° 0 mm 4 mps 737 mmHg 58%
11:00 +27°C° 0 mm 4 mps 737 mmHg 55%
12:00 +27°C° 0 mm 4 mps 737 mmHg 52%
13:00 +28°C° 0 mm 4 mps 737 mmHg 48%
14:00 +27°C° 0.1 mm 4 mps 737 mmHg 53%
15:00 +27°C° 0.1 mm 4 mps 737 mmHg 57%
16:00 +26°C° 0.1 mm 4 mps 737 mmHg 61%
17:00 +25°C° 0.1 mm 3 mps 737 mmHg 68%
18:00 +23°C° 0.1 mm 2 mps 737 mmHg 75%
19:00 +21°C° 0.1 mm 1 mps 737 mmHg 83%
20:00 +21°C° 0 mm 1 mps 737 mmHg 83%
21:00 +20°C° 0 mm 1 mps 738 mmHg 84%
22:00 +19°C° 0 mm 1 mps 738 mmHg 85%
23:00 +19°C° 0.1 mm 1 mps 738 mmHg 87%

27 July, Tuesday

Time Temperature Precipitation Wind Pressure Humidity
00:00 +18°C° 0.1 mm 1 mps 738 mmHg 89%
01:00 +16°C° 0.1 mm 1 mps 737 mmHg 92%
02:00 +16°C° 0.5 mm 1 mps 738 mmHg 93%
03:00 +16°C° 0.5 mm 1 mps 738 mmHg 95%
04:00 +16°C° 0.5 mm 1 mps 739 mmHg 97%
05:00 +18°C° 0 mm 1 mps 739 mmHg 96%
06:00 +18°C° 0 mm 1 mps 739 mmHg 95%
07:00 +19°C° 0 mm 1 mps 739 mmHg 94%
08:00 +20°C° 0 mm 1 mps 739 mmHg 85%
09:00 +22°C° 0 mm 1 mps 739 mmHg 77%
10:00 +23°C° 0 mm 1 mps 739 mmHg 68%
11:00 +24°C° 0.1 mm 1 mps 739 mmHg 66%
12:00 +24°C° 0.1 mm 2 mps 739 mmHg 63%
13:00 +25°C° 0.1 mm 2 mps 739 mmHg 61%
14:00 +24°C° 0.3 mm 2 mps 739 mmHg 71%
15:00 +22°C° 0.3 mm 1 mps 739 mmHg 82%
16:00 +21°C° 0.3 mm 1 mps 738 mmHg 92%
17:00 +20°C° 0.8 mm 1 mps 738 mmHg 94%
18:00 +19°C° 0.8 mm 1 mps 738 mmHg 96%
19:00 +18°C° 0.8 mm 1 mps 738 mmHg 97%
20:00 +18°C° 0.1 mm 1 mps 738 mmHg 97%
21:00 +18°C° 0.1 mm 1 mps 738 mmHg 97%
22:00 +18°C° 0.1 mm 1 mps 738 mmHg 97%
23:00 +18°C° 3 mm 1 mps 737 mmHg 98%

28 July, Wednesday

Time Temperature Precipitation Wind Pressure Humidity
00:00 +18°C° 3 mm 1 mps 736 mmHg 98%
01:00 +16°C° 3 mm 1 mps 736 mmHg 99%
02:00 +16°C° 3.3 mm 1 mps 736 mmHg 99%
03:00 +15°C° 3.3 mm 0 mps 736 mmHg 99%
04:00 +15°C° 3.3 mm 0 mps 736 mmHg 99%
05:00 +15°C° 0.1 mm 0 mps 736 mmHg 98%
06:00 +16°C° 0.1 mm 1 mps 736 mmHg 98%
07:00 +16°C° 0.1 mm 1 mps 737 mmHg 98%
08:00 +18°C° 0.2 mm 1 mps 737 mmHg 96%
09:00 +18°C° 0.2 mm 2 mps 737 mmHg 93%
10:00 +18°C° 0.2 mm 2 mps 737 mmHg 90%
11:00 +20°C° 0.3 mm 3 mps 737 mmHg 80%
12:00 +21°C° 0.3 mm 3 mps 737 mmHg 70%
13:00 +22°C° 0.3 mm 4 mps 737 mmHg 60%
14:00 +22°C° 0 mm 4 mps 737 mmHg 58%
15:00 +22°C° 0 mm 4 mps 737 mmHg 56%
16:00 +22°C° 0 mm 4 mps 737 mmHg 54%
17:00 +21°C° 0 mm 3 mps 737 mmHg 62%
18:00 +19°C° 0 mm 2 mps 737 mmHg 69%
19:00 +18°C° 0 mm 1 mps 737 mmHg 77%
20:00 +16°C° 0 mm 1 mps 737 mmHg 80%
21:00 +15°C° 0 mm 2 mps 737 mmHg 83%
22:00 +14°C° 0 mm 2 mps 738 mmHg 87%
23:00 +13°C° 0 mm 1 mps 737 mmHg 87%

29 July, Thursday

Time Temperature Precipitation Wind Pressure Humidity
00:00 +13°C° 0 mm 1 mps 737 mmHg 87%
01:00 +12°C° 0 mm 1 mps 737 mmHg 86%
02:00 +12°C° 0 mm 1 mps 737 mmHg 87%
03:00 +12°C° 0 mm 1 mps 737 mmHg 87%
04:00 +11°C° 0 mm 1 mps 737 mmHg 88%
05:00 +13°C° 0 mm 1 mps 737 mmHg 82%
06:00 +15°C° 0 mm 1 mps 738 mmHg 76%
07:00 +16°C° 0 mm 2 mps 738 mmHg 70%
08:00 +18°C° 0 mm 2 mps 738 mmHg 63%
09:00 +20°C° 0 mm 2 mps 738 mmHg 56%
10:00 +21°C° 0 mm 3 mps 738 mmHg 49%
11:00 +22°C° 0 mm 3 mps 738 mmHg 46%
12:00 +24°C° 0 mm 3 mps 738 mmHg 44%
13:00 +25°C° 0 mm 3 mps 737 mmHg 42%
14:00 +24°C° 0 mm 3 mps 737 mmHg 45%
15:00 +22°C° 0 mm 3 mps 737 mmHg 49%
16:00 +22°C° 0 mm 3 mps 737 mmHg 53%
17:00 +20°C° 0 mm 2 mps 737 mmHg 60%
18:00 +19°C° 0 mm 2 mps 737 mmHg 67%
19:00 +18°C° 0 mm 1 mps 737 mmHg 75%
20:00 +16°C° 0 mm 1 mps 737 mmHg 78%
21:00 +14°C° 0 mm 0 mps 737 mmHg 82%
22:00 +13°C° 0 mm 0 mps 738 mmHg 85%
23:00 +13°C° 0 mm 0 mps 737 mmHg 85%
Show more